User: anonymous   Login
Location: Unspecified
(0.0000°N, 0.0000°E)
Time: 12:44:08
(UTC+02:00)
Language:

Delta 2 Rocket - Orbit

View from above orbital plane
View from above orbital plane
View from above satellite
View from above satellite

Ground track
Ground track

The orbit data is extracted from the following two-line orbital elements,

1 20453U 90008B   16149.95812991  .00002157  00000-0  12656-3 0  9994
2 20453  35.6272 325.3624 0295062 216.0273 142.0222 14.81784462391158
Epoch (UTC): 28 May 2016 22:59:42
Eccentricity: 0.0295062
inclination: 35.6272°
perigee height: 417 km
apogee height: 830 km
right ascension of ascending node: 325.3624°
argument of perigee: 216.0273°
revolutions per day: 14.81784462
mean anomaly at epoch: 142.0222°
orbit number at epoch: 39115

The dashed part of the orbit path shows where the satellite is in the earth's shadow,  

DLR